Powrót do katalogu

USA 449

AktywnyMilitariaVLEO
NORAD 62348·PAYLOAD·🇺🇸 United States

Wystrzelony Dec 17, 2024 z Vandenberg Space Force Base

Loading…

Następne Przeloty (najbliższe 24 godziny)

TLE

NieaktualneSource: Mike McCants

Epoka: Aug 11, 2026, 22:36 UTC

1 62348U 24243J   26223.94216824 0.00000000  00000-0  00000-0 0    02
2 62348  70.0126 156.9518 0005000 351.3755   8.6245 14.96713151    03

Śledź USA 449 w czasie rzeczywistym z AllMySat

Download on the App Store